Вернуться в каталог

CZ-6A DEB

АктивенPO
NORAD 61306·DEBRIS·🇨🇳 China

Запущен Aug 6, 2024 с Taiyuan Satellite Launch Center

Loading…

Ближайшие Пролёты (ближайшие 24 часа)

TLE

СвежийSource: Space-Track

Эпоха: Sep 14, 2026, 05:48 UTC

1 61306U 24140TT  26257.24171836  .00003596  00000-0  10083-2 0  9998
2 61306  88.1138 179.3324 0028623  43.0881 317.2556 14.45607430107563

Отслеживайте CZ-6A DEB в реальном времени с AllMySat

Download on the App Store